Weather History for Windom, MN

Change the Weather History Date:

Tuesday, July 2, 2013

  Actual Average Record
Temperature  
Mean Temperature 71 °F -  
Max Temperature 82 °F 84 °F 96 °F (1949)
Min Temperature 60 °F 60 °F 49 °F (1976)
Cooling Degree Days 6    
Growing Degree Days 21 (Base 50)    
Moisture  
Dew Point 54 °F    
Average Humidity 56    
Maximum Humidity 82    
Minimum Humidity 32    
Precipitation  
Precipitation 0.00 in - - ()
Sea Level Pressure  
Sea Level Pressure 30.14 in    
Wind  
Wind Speed 2 mph (NNE)    
Max Wind Speed 12 mph    
Max Gust Speed -    
Visibility 10 miles    
Events      
Averages and records for this station are not official NWS values.
T = Trace of Precipitation, MM = Missing Value Source: NWS Daily Summary

Daily Weather History Graph

Daily Weather History Graph

Search for Another Location

Airport:

Trip Planner

Search our weather history database for the weather conditions in past years. The results will help you decide how hot, cold, wet, or windy it might be!

Date:

Astronomy

Jul. 02, 2013 Rise Set
Actual Time 5:42 AM CDT 9:06 PM CDT
Civil Twilight 5:06 AM CDT 9:42 PM CDT
Nautical Twilight 4:19 AM CDT 10:29 PM CDT
Astronomical Twilight 3:20 AM CDT 11:28 PM CDT
Moon 1:51 AM CDT (7/2) 4:16 PM CDT (7/2)
Length of Visible Light 16h 35m
Length of Day
15h 23m
Waning Crescent, 26% of the Moon is Illuminated
Jul 2
Waning Crescent
Jul 8
New
Jul 15
First Quarter
Jul 22
Full
Jul 29
Last Quarter

Hourly Weather History & Observations

Time (CDT) Temp. Heat Index Dew Point Humidity Pressure Visibility Wind Dir Wind Speed Gust Speed Precip Events Conditions
12:13 AM 66.2 °F - 55.4 °F 68% 30.18 in 10.0 mi Calm Calm - N/A   Overcast
12:32 AM 66.2 °F - 55.4 °F 68% 30.18 in 10.0 mi NW 3.5 mph - N/A   Scattered Clouds
12:51 AM 64.4 °F - 55.4 °F 73% 30.17 in 10.0 mi Calm Calm - N/A   Clear
1:13 AM 62.6 °F - 55.4 °F 77% 30.18 in 10.0 mi Calm Calm - N/A   Clear
1:32 AM 62.6 °F - 55.4 °F 77% 30.17 in 10.0 mi Calm Calm - N/A   Clear
1:52 AM 62.6 °F - 55.4 °F 77% 30.17 in 10.0 mi Calm Calm - N/A   Clear
2:13 AM 64.4 °F - 53.6 °F 68% 30.17 in 10.0 mi Calm Calm - N/A   Clear
2:32 AM 64.4 °F - 53.6 °F 68% 30.17 in 10.0 mi Calm Calm - N/A   Clear
2:52 AM 62.6 °F - 53.6 °F 72% 30.17 in 10.0 mi Calm Calm - N/A   Scattered Clouds
3:13 AM 62.6 °F - 53.6 °F 72% 30.17 in 10.0 mi Calm Calm - N/A   Scattered Clouds
3:32 AM 60.8 °F - 55.4 °F 82% 30.17 in 10.0 mi Calm Calm - N/A   Scattered Clouds
3:53 AM 60.8 °F - 55.4 °F 82% 30.17 in 10.0 mi Calm Calm - N/A   Scattered Clouds
4:13 AM 60.8 °F - 55.4 °F 82% 30.17 in 10.0 mi Calm Calm - N/A   Mostly Cloudy
4:32 AM 60.8 °F - 53.6 °F 77% 30.17 in 10.0 mi Calm Calm - N/A   Scattered Clouds
4:53 AM 60.8 °F - 53.6 °F 77% 30.17 in 10.0 mi Calm Calm - N/A   Scattered Clouds
5:13 AM 60.8 °F - 53.6 °F 77% 30.17 in 10.0 mi Calm Calm - N/A   Clear
5:32 AM 60.8 °F - 53.6 °F 77% 30.17 in 10.0 mi Calm Calm - N/A   Clear
5:53 AM 60.8 °F - 53.6 °F 77% 30.17 in 10.0 mi Calm Calm - N/A   Clear
6:13 AM 60.8 °F - 53.6 °F 77% 30.18 in 10.0 mi Calm Calm - N/A   Clear
6:32 AM 62.6 °F - 53.6 °F 72% 30.18 in 10.0 mi North 3.5 mph - N/A   Clear
6:53 AM 60.8 °F - 55.4 °F 82% 30.18 in 10.0 mi Calm Calm - N/A   Clear
7:13 AM 62.6 °F - 57.2 °F 82% 30.18 in 7.0 mi Calm Calm - N/A   Clear
7:32 AM 66.2 °F - 57.2 °F 73% 30.18 in 7.0 mi Calm Calm - N/A   Clear
7:53 AM 68.0 °F - 57.2 °F 68% 30.18 in 10.0 mi Calm Calm - N/A   Clear
8:13 AM 69.8 °F - 59.0 °F 68% 30.18 in 10.0 mi NNE 3.5 mph - N/A   Clear
8:32 AM 71.6 °F - 59.0 °F 64% 30.18 in 10.0 mi North 3.5 mph - N/A   Clear
8:53 AM 71.6 °F - 59.0 °F 64% 30.18 in 10.0 mi NNE 3.5 mph - N/A   Clear
9:13 AM 73.4 °F - 59.0 °F 61% 30.17 in 10.0 mi NNE 3.5 mph - N/A   Clear
9:32 AM 73.4 °F - 59.0 °F 61% 30.17 in 10.0 mi ENE 3.5 mph - N/A   Clear
9:52 AM 75.2 °F - 57.2 °F 53% 30.17 in 10.0 mi NNE 4.6 mph - N/A   Clear
10:13 AM 75.2 °F - 55.4 °F 50% 30.17 in 10.0 mi NNE 3.5 mph - N/A   Clear
10:32 AM 78.8 °F - 51.8 °F 39% 30.17 in 10.0 mi Calm Calm - N/A   Clear
10:52 AM 78.8 °F - 51.8 °F 39% 30.16 in 10.0 mi NE 3.5 mph - N/A   Clear
11:13 AM 78.8 °F - 51.8 °F 39% 30.16 in 10.0 mi NE 4.6 mph - N/A   Clear
11:32 AM 78.8 °F - 51.8 °F 39% 30.16 in 10.0 mi North 3.5 mph - N/A   Clear
11:52 AM 80.6 °F - 51.8 °F 37% 30.16 in 10.0 mi NNW 5.8 mph - N/A   Clear
12:12 PM 80.6 °F - 51.8 °F 37% 30.16 in 10.0 mi Calm Calm - N/A   Scattered Clouds
12:32 PM 80.6 °F 80.3 °F 53.6 °F 39% 30.16 in 10.0 mi NNE 5.8 mph - N/A   Scattered Clouds
12:53 PM 80.6 °F - 51.8 °F 37% 30.16 in 10.0 mi Calm Calm - N/A   Scattered Clouds
1:12 PM 80.6 °F - 51.8 °F 37% 30.15 in 10.0 mi NNW 6.9 mph - N/A   Scattered Clouds
1:32 PM 82.4 °F 81.4 °F 53.6 °F 37% 30.15 in 10.0 mi NNE 6.9 mph - N/A   Scattered Clouds
1:53 PM 82.4 °F - 51.8 °F 35% 30.14 in 10.0 mi North 11.5 mph - N/A   Clear
2:12 PM 82.4 °F - 50.0 °F 32% 30.14 in 10.0 mi North 5.8 mph - N/A   Scattered Clouds
2:32 PM 80.6 °F - 51.8 °F 37% 30.13 in 10.0 mi NNE 8.1 mph - N/A   Scattered Clouds
2:53 PM 82.4 °F - 51.8 °F 35% 30.13 in 10.0 mi NE 4.6 mph - N/A   Scattered Clouds
3:12 PM 78.8 °F - 53.6 °F 42% 30.13 in 10.0 mi North 6.9 mph - N/A   Mostly Cloudy
3:32 PM 82.4 °F - 51.8 °F 35% 30.12 in 10.0 mi NE 6.9 mph - N/A   Scattered Clouds
3:53 PM 82.4 °F - 51.8 °F 35% 30.11 in 10.0 mi NNE 11.5 mph - N/A   Clear
4:12 PM 82.4 °F - 51.8 °F 35% 30.11 in 10.0 mi North 6.9 mph - N/A   Clear
4:32 PM 82.4 °F - 51.8 °F 35% 30.10 in 10.0 mi ENE 8.1 mph - N/A   Clear
4:53 PM 82.4 °F - 51.8 °F 35% 30.10 in 10.0 mi NE 4.6 mph - N/A   Scattered Clouds
5:12 PM 80.6 °F - 51.8 °F 37% 30.10 in 10.0 mi NE 4.6 mph - N/A   Scattered Clouds
5:32 PM 80.6 °F - 50.0 °F 34% 30.10 in 10.0 mi NE 6.9 mph - N/A   Scattered Clouds
5:53 PM 80.6 °F - 51.8 °F 37% 30.09 in 10.0 mi NE 4.6 mph - N/A   Clear
6:12 PM 80.6 °F - 51.8 °F 37% 30.08 in 10.0 mi Calm Calm - N/A   Scattered Clouds
6:33 PM 80.6 °F - 51.8 °F 37% 30.08 in 7.0 mi NE 6.9 mph - N/A   Scattered Clouds
6:53 PM 80.6 °F - 51.8 °F 37% 30.08 in 10.0 mi Calm Calm - N/A   Clear
7:12 PM 78.8 °F - 51.8 °F 39% 30.08 in 10.0 mi NE 5.8 mph - N/A   Clear
7:33 PM 78.8 °F - 53.6 °F 42% 30.08 in 10.0 mi NE 4.6 mph - N/A   Clear
7:53 PM 75.2 °F - 55.4 °F 50% 30.09 in 10.0 mi ENE 3.5 mph - N/A   Clear
8:12 PM 75.2 °F - 55.4 °F 50% 30.09 in 10.0 mi Calm Calm - N/A   Clear
8:32 PM 73.4 °F - 55.4 °F 53% 30.09 in 4.0 mi Calm Calm - N/A   Haze
8:53 PM 71.6 °F - 57.2 °F 60% 30.09 in 10.0 mi Calm Calm - N/A   Clear
9:12 PM 71.6 °F - 57.2 °F 60% 30.09 in 10.0 mi Calm Calm - N/A   Scattered Clouds
9:32 PM 69.8 °F - 57.2 °F 64% 30.09 in 10.0 mi Calm Calm - N/A   Scattered Clouds
9:53 PM 69.8 °F - 55.4 °F 60% 30.10 in 10.0 mi Calm Calm - N/A   Clear
10:12 PM 69.8 °F - 55.4 °F 60% 30.10 in 10.0 mi Calm Calm - N/A   Scattered Clouds
10:32 PM 68.0 °F - 55.4 °F 64% 30.10 in 10.0 mi Calm Calm - N/A   Clear
10:53 PM 66.2 °F - 55.4 °F 68% 30.10 in 10.0 mi Calm Calm - N/A   Clear
11:12 PM 66.2 °F - 55.4 °F 68% 30.09 in 10.0 mi Calm Calm - N/A   Clear
11:32 PM 66.2 °F - 55.4 °F 68% 30.10 in 10.0 mi Calm Calm - N/A   Clear
11:53 PM 66.2 °F - 55.4 °F 68% 30.10 in 10.0 mi Calm Calm - N/A   Scattered Clouds